This is the latest recevied weather packets stored in our database for station/object KD4EG. If no packets are shown the sender has not sent any weather packets the latest 10 day(s).
| Time | Temp. | Humidity | Pressure | Rain* | Wind** | Luminosity | Snow |
|---|---|---|---|---|---|---|---|
| 1777914055 | 21.67° C | 44% | 1016.6 hPa | 0 mm | - | 738 W/m² | - |
| 1777913750 | 21.67° C | 46% | 1016.4 hPa | 0 mm | - | 744 W/m² | - |
| 1777913448 | 21.67° C | 45% | 1016.6 hPa | 0 mm | - | 702 W/m² | - |
| 1777913144 | 21.11° C | 47% | 1016.8 hPa | 0 mm | - | 689 W/m² | - |
| 1777912841 | 21.11° C | 46% | 1016.7 hPa | 0 mm | - | 695 W/m² | - |
| 1777912537 | 21.11° C | 46% | 1016.9 hPa | 0 mm | - | 701 W/m² | - |
| 1777912233 | 21.11° C | 46% | 1017.1 hPa | 0 mm | - | 695 W/m² | - |
| 1777911930 | 21.11° C | 46% | 1017 hPa | 0 mm | - | 642 W/m² | - |
| 1777911626 | 20.56° C | 46% | 1016.9 hPa | 0 mm | - | 672 W/m² | - |
| 1777911322 | 20° C | 47% | 1017 hPa | 0 mm | - | 593 W/m² | - |
| 1777911020 | 20° C | 47% | 1017.1 hPa | 0 mm | - | 410 W/m² | - |
| 1777910718 | 20.56° C | 46% | 1017.5 hPa | 0 mm | - | 507 W/m² | - |
| 1777910414 | 19.44° C | 46% | 1017.4 hPa | 0 mm | - | 732 W/m² | - |
| 1777910110 | 19.44° C | 47% | 1017.5 hPa | 0 mm | - | 617 W/m² | - |
| 1777909809 | 20° C | 47% | 1017.6 hPa | 0 mm | - | 349 W/m² | - |
| 1777909504 | 20° C | 45% | 1017.6 hPa | 0 mm | - | 660 W/m² | - |
| 1777909202 | 19.44° C | 47% | 1017.6 hPa | 0 mm | - | 826 W/m² | - |
| 1777908900 | 20° C | 45% | 1017.7 hPa | 0 mm | - | 506 W/m² | - |
| 1777908597 | 19.44° C | 46% | 1017.9 hPa | 0 mm | - | 833 W/m² | - |
| 1777908294 | 18.89° C | 46% | 1017.7 hPa | 0 mm | - | 796 W/m² | - |
| 1777907990 | 18.89° C | 46% | 1018 hPa | 0 mm | - | 819 W/m² | - |
| 1777907686 | 18.33° C | 47% | 1017.9 hPa | 0 mm | - | 567 W/m² | - |
| 1777907381 | 18.89° C | 46% | 1017.8 hPa | 0 mm | - | 549 W/m² | - |
| 1777907078 | 18.89° C | 46% | 1018.1 hPa | 0 mm | - | 705 W/m² | - |
| 1777906775 | 18.33° C | 47% | 1018 hPa | 0 mm | - | 706 W/m² | - |
* Rain latest hour (hover to see other rain measurements)
** Current wind speed in m/s (hover to see current wind gust speed)